CW7986 Weather Reports


Display with metric or nautical units.
time (UTC)temp
F
wind
direction
speed
MPH
gust
MPH
rain 1hr
in
rain 24hr
in
rain mn
in
humidity
%
barometer
mb
20260902144005 88 50 2.0 7.0 0.00 0.15 0.01 73 1014.9
20260902143504 87 59 1.0 5.0 0.00 0.15 0.01 76 1014.8
20260902143003 85 72 2.0 5.0 0.00 0.15 0.01 77 1014.9
20260902142504 85 65 2.0 6.0 0.00 0.15 0.01 77 1014.8
20260902142004 85 54 1.0 6.0 0.00 0.15 0.01 76 1014.8
20260902141524 85 52 1.0 4.0 0.00 0.15 0.01 76 1014.8
20260902141004 86 52 1.0 4.0 0.00 0.15 0.01 75 1014.8
20260902140524 86 58 2.0 5.0 0.00 0.15 0.01 75 1014.8
20260902140004 86 62 2.0 5.0 0.00 0.15 0.01 75 1014.8
20260902135504 87 65 2.0 5.0 0.00 0.15 0.01 77 1014.8
20260902135004 85 66 2.0 5.0 0.00 0.15 0.01 79 1014.9
20260902134525 85 62 3.0 5.0 0.00 0.15 0.01 79 1014.9
20260902134003 84 61 3.0 7.0 0.00 0.15 0.01 79 1014.8
20260902133524 84 59 3.0 7.0 0.00 0.15 0.01 79 1014.8
20260902133004 84 61 2.0 7.0 0.00 0.15 0.01 80 1014.8
20260902132503 84 61 3.0 7.0 0.00 0.15 0.01 81 1014.8
20260902132004 83 63 3.0 7.0 0.00 0.15 0.01 82 1014.8
20260902131504 83 72 2.0 6.0 0.00 0.15 0.01 83 1014.8
20260902131004 82 70 2.0 6.0 0.00 0.15 0.01 84 1014.8
20260902130504 82 66 2.0 6.0 0.00 0.15 0.01 85 1014.8
20260902130003 82 61 1.0 4.0 0.00 0.15 0.01 86 1014.8
20260902125503 82 66 2.0 5.0 0.00 0.15 0.01 88 1014.8
20260902125003 81 64 3.0 6.0 0.00 0.15 0.01 88 1014.8
20260902124504 80 58 3.0 6.0 0.00 0.15 0.01 89 1014.8
20260902124004 80 60 3.0 5.0 0.00 0.15 0.01 89 1014.8
20260902123503 80 65 3.0 5.0 0.00 0.15 0.01 90 1014.8
20260902123025 79 69 2.0 4.0 0.00 0.15 0.01 90 1014.8
20260902122503 79 62 2.0 4.0 0.00 0.15 0.01 90 1014.7
20260902122003 79 57 2.0 4.0 0.01 0.15 0.01 91 1014.8
20260902121504 78 61 1.0 5.0 0.01 0.15 0.01 90 1014.8
20260902121004 78 49 1.0 5.0 0.01 0.15 0.01 91 1014.8
20260902120504 78 48 1.0 3.0 0.01 0.15 0.01 90 1014.7
20260902120004 77 50 1.0 3.0 0.01 0.15 0.01 90 1014.7
20260902115504 77 67 0.0 3.0 0.01 0.15 0.01 90 1014.6
20260902115025 77 0 0.0 0.0 0.01 0.15 0.01 90 1014.5
20260902114504 77 0 0.0 0.0 0.01 0.15 0.01 90 1014.4
20260902114025 77 0 0.0 0.0 0.01 0.15 0.01 90 1014.4
20260902113504 77 0 0.0 0.0 0.01 0.15 0.01 90 1014.4
20260902113003 76 0 0.0 0.0 0.01 0.15 0.01 90 1014.4
20260902112504 76 81 0.0 1.0 0.01 0.15 0.01 90 1014.4
20260902112004 76 81 0.0 1.0 0.00 0.14 0.00 90 1014.4
20260902111504 76 81 0.0 1.0 0.00 0.14 0.00 90 1014.5
20260902111003 76 0 0.0 0.0 0.00 0.14 0.00 90 1014.4
20260902110503 76 0 0.0 0.0 0.00 0.14 0.00 90 1014.4
20260902110005 76 0 0.0 0.0 0.00 0.14 0.00 90 1014.4
20260902105504 76 81 0.0 1.0 0.00 0.14 0.00 90 1014.3
20260902105004 76 81 0.0 1.0 0.00 0.14 0.00 90 1014.3
20260902104504 76 81 0.0 1.0 0.00 0.14 0.00 90 1014.2
20260902104024 77 81 0.0 1.0 0.00 0.14 0.00 90 1014.2
20260902103504 77 0 0.0 0.0 0.00 0.14 0.00 90 1014.3
20260902103003 77 0 0.0 0.0 0.00 0.14 0.00 90 1014.2
20260902102524 77 0 0.0 0.0 0.00 0.14 0.00 90 1014.1
20260902102004 77 0 0.0 0.0 0.00 0.14 0.00 90 1014.1
20260902101503 77 0 0.0 0.0 0.00 0.14 0.00 90 1014.1
20260902101003 77 0 0.0 0.0 0.00 0.14 0.00 90 1014.0
20260902100503 77 0 0.0 0.0 0.00 0.14 0.00 90 1014.0
20260902100004 77 0 0.0 0.0 0.00 0.14 0.00 90 1013.9
20260902095504 77 0 0.0 0.0 0.00 0.14 0.00 90 1013.8
20260902095024 77 81 0.0 1.0 0.00 0.14 0.00 90 1013.8
20260902094503 77 81 0.0 2.0 0.00 0.14 0.00 90 1013.8
20260902094025 77 81 0.0 2.0 0.00 0.14 0.00 90 1013.7
20260902093504 77 81 0.0 3.0 0.00 0.14 0.00 90 1013.7
20260902093003 77 81 0.0 2.0 0.00 0.14 0.00 90 1013.6
20260902092504 77 81 0.0 2.0 0.00 0.14 0.00 90 1013.7
20260902092003 77 81 0.0 2.0 0.00 0.14 0.00 90 1013.7
20260902091503 77 0 0.0 0.0 0.00 0.14 0.00 90 1013.6
20260902091004 77 0 0.0 0.0 0.00 0.14 0.00 90 1013.6
20260902090504 77 0 0.0 0.0 0.00 0.14 0.00 90 1013.5
20260902090004 77 0 0.0 0.0 0.00 0.14 0.00 90 1013.5
20260902085503 77 0 0.0 0.0 0.00 0.14 0.00 90 1013.5
20260902085003 77 0 0.0 0.0 0.00 0.14 0.00 90 1013.5
20260902084504 77 0 0.0 0.0 0.00 0.14 0.00 90 1013.5
20260902084004 77 0 0.0 0.0 0.00 0.14 0.00 90 1013.5
20260902083504 77 0 0.0 0.0 0.00 0.14 0.00 90 1013.4
20260902083003 77 0 0.0 0.0 0.00 0.14 0.00 90 1013.3
20260902082503 77 0 0.0 0.0 0.00 0.14 0.00 90 1013.4
20260902082025 77 0 0.0 0.0 0.00 0.14 0.00 90 1013.4
20260902081503 77 0 0.0 0.0 0.00 0.14 0.00 90 1013.3
20260902081005 77 0 0.0 0.0 0.00 0.14 0.00 90 1013.2
20260902080504 77 0 0.0 0.0 0.00 0.14 0.00 90 1013.3
20260902080004 77 0 0.0 0.0 0.00 0.14 0.00 90 1013.5
20260902075503 77 0 0.0 0.0 0.00 0.14 0.00 90 1013.4
20260902075004 77 0 0.0 0.0 0.00 0.14 0.00 90 1013.4
20260902074504 77 0 0.0 0.0 0.00 0.14 0.00 90 1013.3
20260902074024 77 0 0.0 0.0 0.00 0.14 0.00 90 1013.3
20260902073505 77 0 0.0 0.0 0.00 0.14 0.00 90 1013.3
20260902073004 77 0 0.0 0.0 0.00 0.14 0.00 89 1013.3
20260902072503 77 0 0.0 0.0 0.00 0.14 0.00 90 1013.4
20260902072004 77 0 0.0 0.0 0.00 0.14 0.00 90 1013.3
20260902071504 77 0 0.0 0.0 0.00 0.14 0.00 89 1013.3
20260902071025 77 0 0.0 0.0 0.00 0.14 0.00 89 1013.4
20260902070504 77 0 0.0 0.0 0.00 0.14 0.00 90 1013.4
20260902070005 77 0 0.0 0.0 0.00 0.14 0.00 89 1013.3
20260902065525 77 0 0.0 0.0 0.00 0.14 0.00 89 1013.4
20260902065004 77 0 0.0 0.0 0.00 0.14 0.00 89 1013.6
20260902064503 77 0 0.0 0.0 0.00 0.14 0.00 89 1013.7
20260902064004 77 0 0.0 0.0 0.00 0.14 0.00 89 1013.7
20260902063504 77 0 0.0 0.0 0.00 0.14 0.00 89 1013.7
20260902063025 77 0 0.0 0.0 0.00 0.14 0.00 89 1013.7
20260902062525 77 0 0.0 0.0 0.00 0.14 0.00 89 1013.7
20260902062004 77 0 0.0 0.0 0.00 0.14 0.00 89 1013.7
20260902061525 77 0 0.0 0.0 0.00 0.14 0.00 89 1013.7
20260902061046 77 0 0.0 0.0 0.00 0.14 0.00 89 1013.7
20260902060504 77 0 0.0 0.0 0.00 0.14 0.00 89 1013.7
20260902060004 77 0 0.0 0.0 0.00 0.14 0.00 89 1013.8
20260902055503 77 0 0.0 0.0 0.00 0.14 0.00 89 1013.8
20260902055004 77 0 0.0 0.0 0.00 0.14 0.00 89 1013.9
20260902054504 77 0 0.0 0.0 0.00 0.14 0.00 89 1014.1
20260902054024 77 0 0.0 0.0 0.00 0.14 0.00 89 1014.1
20260902053525 77 0 0.0 0.0 0.00 0.14 0.00 89 1014.1
20260902053004 77 0 0.0 0.0 0.00 0.14 0.00 89 1014.1
20260902052503 77 0 0.0 0.0 0.00 0.14 0.00 89 1014.2
20260902052003 77 0 0.0 0.0 0.00 0.14 0.00 89 1014.2
20260902051524 77 0 0.0 0.0 0.00 0.14 0.00 89 1014.1
20260902051025 77 0 0.0 0.0 0.00 0.14 0.00 89 1014.2
20260902050504 77 0 0.0 0.0 0.00 0.14 0.00 89 1014.2
20260902050025 77 0 0.0 0.0 0.00 0.14 0.00 89 1014.2
20260902045525 77 0 0.0 0.0 0.00 0.14 0.00 89 1014.1
20260902045003 77 0 0.0 0.0 0.00 0.14 0.00 89 1014.1
20260902044504 77 0 0.0 0.0 0.00 0.14 0.00 89 1014.3
20260902044003 77 0 0.0 0.0 0.00 0.14 0.00 89 1014.3
20260902043504 77 0 0.0 0.0 0.00 0.14 0.00 89 1014.3
20260902043003 77 0 0.0 0.0 0.00 0.14 0.00 89 1014.4
20260902042503 77 0 0.0 0.0 0.00 0.14 0.00 89 1014.4
20260902042004 77 0 0.0 0.0 0.00 0.14 0.00 89 1014.5
20260902041505 77 0 0.0 0.0 0.00 0.14 0.00 89 1014.5
20260902041025 78 0 0.0 0.0 0.00 0.14 0.00 89 1014.6
20260902040503 77 0 0.0 0.0 0.00 0.14 0.00 89 1014.5
20260902040004 77 0 0.0 0.0 0.00 0.14 0.00 89 1014.6
20260902035525 77 0 0.0 0.0 0.00 0.14 0.14 89 1014.6
20260902035005 77 0 0.0 0.0 0.00 0.14 0.14 89 1014.8
20260902034505 77 0 0.0 0.0 0.00 0.14 0.14 88 1014.8
20260902034004 77 0 0.0 0.0 0.00 0.14 0.14 89 1014.8
20260902033525 77 0 0.0 0.0 0.00 0.14 0.14 88 1014.8
20260902033026 78 0 0.0 0.0 0.00 0.14 0.14 88 1014.8
20260902032526 78 0 0.0 0.0 0.00 0.14 0.14 88 1014.8
20260902032005 78 0 0.0 0.0 0.00 0.14 0.14 88 1014.9
20260902031504 78 0 0.0 0.0 0.00 0.14 0.14 88 1014.9
20260902031004 78 0 0.0 0.0 0.00 0.14 0.14 88 1014.9
20260902030504 78 0 0.0 0.0 0.00 0.14 0.14 88 1014.9
20260902030004 78 0 0.0 0.0 0.00 0.14 0.14 88 1014.9
20260902025503 78 0 0.0 0.0 0.00 0.14 0.14 88 1014.9
20260902025004 78 0 0.0 0.0 0.00 0.14 0.14 88 1014.8
20260902024503 78 0 0.0 0.0 0.00 0.14 0.14 88 1014.8
20260902024004 78 0 0.0 0.0 0.00 0.14 0.14 88 1014.9
20260902023524 78 0 0.0 0.0 0.00 0.14 0.14 88 1015.0
20260902023003 78 0 0.0 0.0 0.00 0.14 0.14 88 1015.1
20260902022525 78 0 0.0 0.0 0.00 0.14 0.14 88 1015.0
20260902022024 78 0 0.0 0.0 0.00 0.14 0.14 88 1015.0
20260902021504 78 0 0.0 0.0 0.00 0.14 0.14 88 1014.9
20260902021024 78 0 0.0 0.0 0.00 0.14 0.14 88 1014.8
20260902020503 78 0 0.0 0.0 0.00 0.14 0.14 88 1014.8
20260902020004 78 0 0.0 0.0 0.00 0.14 0.14 88 1014.8
20260902015503 78 0 0.0 0.0 0.00 0.14 0.14 88 1014.8
20260902015004 78 0 0.0 0.0 0.00 0.14 0.14 88 1014.8
20260902014503 78 0 0.0 0.0 0.00 0.14 0.14 88 1014.8
20260902014003 78 0 0.0 0.0 0.00 0.14 0.14 88 1014.8
20260902013503 78 0 0.0 0.0 0.00 0.14 0.14 88 1014.8
20260902013004 78 0 0.0 0.0 0.00 0.14 0.14 88 1014.7
20260902012503 78 0 0.0 0.0 0.00 0.14 0.14 88 1014.8
20260902012004 78 0 0.0 0.0 0.00 0.14 0.14 88 1014.7
20260902011503 78 0 0.0 0.0 0.00 0.14 0.14 88 1014.7
20260902011004 78 0 0.0 0.0 0.00 0.14 0.14 87 1014.7
20260902010525 78 0 0.0 0.0 0.00 0.14 0.14 87 1014.7
20260902010004 78 0 0.0 0.0 0.00 0.14 0.14 87 1014.6
20260902005503 78 0 0.0 0.0 0.00 0.14 0.14 87 1014.6
20260902005004 78 0 0.0 0.0 0.01 0.14 0.14 87 1014.7
20260902004503 78 0 0.0 0.0 0.01 0.14 0.14 87 1014.7
20260902004003 78 0 0.0 0.0 0.01 0.14 0.14 87 1014.6
20260902003524 78 0 0.0 0.0 0.01 0.14 0.14 87 1014.6
20260902003004 78 0 0.0 0.0 0.02 0.14 0.14 87 1014.6
20260902002504 79 0 0.0 0.0 0.02 0.14 0.14 87 1014.5
20260902002003 79 0 0.0 0.0 0.03 0.14 0.14 87 1014.5
20260902001507 79 0 0.0 0.0 0.03 0.14 0.14 87 1014.5
20260902001003 79 64 0.0 1.0 0.04 0.14 0.14 87 1014.6
20260902000503 79 64 0.0 2.0 0.04 0.14 0.14 87 1014.7
20260902000004 79 66 1.0 2.0 0.05 0.14 0.14 87 1014.7
20260901235504 79 75 1.0 3.0 0.05 0.14 0.14 86 1014.7
20260901235004 79 79 1.0 4.0 0.05 0.13 0.13 86 1014.7
20260901234504 80 83 1.0 4.0 0.05 0.13 0.13 86 1014.7
20260901234003 80 80 1.0 3.0 0.05 0.13 0.13 86 1014.7
20260901233504 80 73 1.0 4.0 0.05 0.13 0.13 86 1014.7
20260901233004 80 68 1.0 4.0 0.04 0.12 0.12 86 1014.6
20260901232504 80 73 1.0 4.0 0.05 0.12 0.12 86 1014.4
20260901232004 81 82 1.0 4.0 0.04 0.11 0.11 86 1014.3
20260901231504 81 75 2.0 4.0 0.05 0.11 0.11 86 1014.3
20260901231024 81 77 1.0 6.0 0.05 0.10 0.10 86 1014.3
20260901230525 81 85 1.0 6.0 0.05 0.10 0.10 85 1014.3
20260901230005 81 90 1.0 2.0 0.05 0.09 0.09 85 1014.1
20260901225503 81 92 0.0 3.0 0.06 0.09 0.09 85 1013.9
20260901225004 81 85 0.0 3.0 0.06 0.08 0.08 85 1013.9
20260901224504 81 112 0.0 2.0 0.07 0.08 0.08 85 1013.8
20260901224004 81 108 1.0 2.0 0.07 0.08 0.08 85 1013.8
20260901223503 81 95 0.0 2.0 0.08 0.08 0.08 84 1013.7
20260901223004 81 0 0.0 0.0 0.08 0.08 0.08 84 1013.6
20260901222503 81 0 0.0 0.0 0.07 0.07 0.07 84 1013.6
20260901222004 81 0 0.0 0.0 0.07 0.07 0.07 83 1013.7
20260901221504 81 0 0.0 0.0 0.06 0.06 0.06 83 1013.7
20260901221025 81 0 0.0 0.0 0.05 0.05 0.05 83 1013.8
20260901220524 81 0 0.0 0.0 0.05 0.05 0.05 82 1013.9
20260901220004 81 0 0.0 0.0 0.04 0.04 0.04 82 1013.9
20260901215503 81 0 0.0 0.0 0.03 0.03 0.03 82 1013.9
20260901215004 82 0 0.0 0.0 0.02 0.02 0.02 82 1013.9
20260901214503 82 0 0.0 0.0 0.01 0.01 0.01 81 1014.0
20260901214025 82 121 0.0 3.0 0.01 0.01 0.01 81 1014.1
20260901213504 82 74 1.0 5.0 0.00 0.00 0.00 80 1014.2
20260901213004 82 76 2.0 5.0 0.00 0.00 0.00 79 1014.3
20260901212504 83 80 1.0 4.0 0.00 0.00 0.00 79 1014.3
20260901212004 83 52 1.0 4.0 0.00 0.00 0.00 78 1014.3
20260901211525 83 86 1.0 5.0 0.00 0.00 0.00 76 1014.3
20260901211004 83 101 1.0 5.0 0.00 0.00 0.00 75 1014.0
20260901210504 83 82 1.0 3.0 0.00 0.00 0.00 75 1013.9
20260901210004 83 111 1.0 4.0 0.00 0.00 0.00 74 1013.6
20260901205505 83 82 2.0 6.0 0.00 0.00 0.00 74 1013.3
20260901205004 83 105 3.0 7.0 0.00 0.00 0.00 74 1013.4
20260901204504 83 124 4.0 10.0 0.00 0.00 0.00 73 1013.2
20260901204003 85 119 5.0 11.0 0.00 0.00 0.00 70 1013.2
20260901203524 87 119 5.0 12.0 0.00 0.00 0.00 66 1013.3
20260901203003 88 104 5.0 12.0 0.00 0.00 0.00 64 1013.3
20260901202524 88 91 6.0 18.0 0.00 0.00 0.00 62 1013.3
20260901202004 90 303 8.0 18.0 0.00 0.00 0.00 63 1013.1
20260901201503 91 281 9.0 18.0 0.00 0.00 0.00 63 1012.4
20260901201004 91 277 9.0 15.0 0.00 0.00 0.00 64 1012.7
20260901200503 90 281 10.0 16.0 0.00 0.00 0.00 65 1012.7
20260901200004 90 284 10.0 16.0 0.00 0.00 0.00 64 1012.7
20260901195504 90 285 9.0 14.0 0.00 0.00 0.00 66 1012.8
20260901195003 90 285 8.0 14.0 0.00 0.00 0.00 67 1012.8
20260901194503 91 287 8.0 14.0 0.00 0.00 0.00 65 1012.8
20260901194003 91 286 8.0 14.0 0.00 0.00 0.00 66 1012.9
20260901193504 91 282 8.0 15.0 0.00 0.00 0.00 67 1013.0
20260901193004 90 282 9.0 15.0 0.00 0.00 0.00 68 1013.1
20260901192503 90 282 9.0 15.0 0.00 0.00 0.00 68 1013.1
20260901192003 90 282 9.0 15.0 0.00 0.00 0.00 68 1013.2
20260901191525 90 282 9.0 14.0 0.00 0.00 0.00 69 1013.2
20260901191003 90 281 9.0 14.0 0.00 0.00 0.00 68 1013.3
20260901190503 90 287 8.0 14.0 0.00 0.00 0.00 68 1013.6
20260901190003 90 288 8.0 13.0 0.00 0.00 0.00 69 1013.7
20260901185503 90 276 9.0 13.0 0.00 0.00 0.00 70 1013.7
20260901185004 89 274 9.0 13.0 0.00 0.00 0.00 71 1013.8
20260901184525 88 275 8.0 14.0 0.00 0.00 0.00 71 1014.0
20260901184004 88 277 8.0 14.0 0.00 0.00 0.00 71 1014.0
20260901183504 88 284 6.0 12.0 0.00 0.00 0.00 69 1014.0
20260901183004 89 292 4.0 15.0 0.00 0.00 0.00 68 1014.0
20260901182504 91 314 2.0 15.0 0.00 0.00 0.00 64 1014.1
20260901182004 93 44 1.0 5.0 0.00 0.00 0.00 60 1014.2
20260901181503 93 56 2.0 6.0 0.00 0.00 0.00 56 1014.3
20260901181024 94 42 1.0 6.0 0.00 0.00 0.00 56 1014.3
20260901180524 93 34 1.0 4.0 0.00 0.00 0.00 57 1014.3
20260901180004 92 70 2.0 5.0 0.00 0.00 0.00 57 1014.4
20260901175504 92 304 1.0 4.0 0.00 0.00 0.00 58 1014.5
20260901175004 92 25 2.0 5.0 0.00 0.00 0.00 57 1014.6
20260901174504 95 49 2.0 5.0 0.00 0.00 0.00 53 1014.6
20260901174003 92 289 1.0 3.0 0.00 0.00 0.00 60 1014.7
20260901173525 94 352 1.0 6.0 0.00 0.00 0.00 60 1014.7
20260901173003 92 13 1.0 6.0 0.00 0.00 0.00 59 1014.7
20260901172504 92 48 1.0 4.0 0.00 0.00 0.00 56 1014.7
20260901172004 93 68 1.0 6.0 0.00 0.00 0.00 55 1014.7
20260901171503 93 61 1.0 6.0 0.00 0.00 0.00 54 1014.8
20260901171024 95 47 1.0 6.0 0.00 0.00 0.00 53 1014.8
20260901170524 94 35 1.0 6.0 0.00 0.00 0.00 55 1014.9
20260901170025 93 27 1.0 4.0 0.00 0.00 0.00 55 1014.9
20260901165504 92 355 1.0 5.0 0.00 0.00 0.00 61 1015.0
20260901165004 91 318 2.0 7.0 0.00 0.00 0.00 61 1015.1
20260901164504 92 336 2.0 7.0 0.00 0.00 0.00 60 1015.2
20260901164004 94 61 2.0 6.0 0.00 0.00 0.00 58 1015.3
20260901163504 95 70 1.0 6.0 0.00 0.00 0.00 56 1015.3
20260901163004 95 49 1.0 6.0 0.00 0.00 0.00 55 1015.3
20260901162503 94 71 2.0 6.0 0.00 0.00 0.00 56 1015.3
20260901162003 95 81 2.0 7.0 0.00 0.00 0.00 57 1015.3
20260901161503 94 72 2.0 7.0 0.00 0.00 0.00 60 1015.4
20260901161004 94 67 2.0 7.0 0.00 0.00 0.00 56 1015.4
20260901160524 94 70 2.0 7.0 0.00 0.00 0.00 59 1015.4
20260901160024 94 65 2.0 7.0 0.00 0.00 0.00 59 1015.5
20260901155524 93 72 2.0 7.0 0.00 0.00 0.00 60 1015.6
20260901155003 93 85 2.0 6.0 0.00 0.00 0.00 60 1015.7
20260901154504 91 69 1.0 5.0 0.00 0.00 0.00 63 1015.7
20260901154004 91 61 2.0 4.0 0.00 0.00 0.00 62 1015.8
20260901153524 93 64 2.0 4.0 0.00 0.00 0.00 59 1015.8
20260901153004 93 28 1.0 4.0 0.00 0.00 0.00 59 1015.7
20260901152504 91 320 1.0 4.0 0.00 0.00 0.00 63 1015.6
20260901152025 92 329 2.0 4.0 0.00 0.00 0.00 63 1015.7
20260901151525 90 325 2.0 5.0 0.00 0.00 0.00 66 1015.7
20260901151005 92 87 2.0 5.0 0.00 0.00 0.00 64 1015.7
20260901150524 91 75 2.0 5.0 0.00 0.00 0.00 65 1015.6
20260901150004 89 55 2.0 7.0 0.00 0.00 0.00 67 1015.6
20260901145524 91 64 3.0 7.0 0.00 0.00 0.00 66 1015.5
20260901145024 91 83 2.0 6.0 0.00 0.00 0.00 65 1015.4
20260901144504 92 75 1.0 5.0 0.00 0.00 0.00 67 1015.5